Find Starlink 30802

NORAD ID: 58150 Int'l Des: 2023-166 Owner: SPXS Country: US Constellation: starlink operational
LEOCIRCULAR

当前视图

正在加载3D地球...

About Starlink 30802

Starlink 30802 (NORAD 58150) is a starlink constellation satellite (v2 mini) launched Oct 29, 2023 by SPXS of US. It operates in LEO, CIRCULAR orbit with a mass of 730.00 kg.

即将过境

Passes for default location (London). Set your location on the main map for personalized predictions.

高度历史

Loading altitude history...

两行轨道根数

1 58150U 23166A 26264.08875323 -.00000037 00000-0 10576-4 0 9997
2 58150 53.1622 30.7236 0001329 70.4998 289.6147 15.31704198163111
Epoch: Sep 21, 2026 • Age: 14 hours

当前状态

高度 470.8 km
远地点 / 近地点 N/A
速度 7.63 km/s
星下点 22.38°N, 160.07°E
发射日期 Oct 29, 2023
运行时间 2.8 years
类型 internet

技术详情

分类 Payload
质量 730.00 kg
干质量 700.00 kg
长度 0.30 m
跨度 29.00 m
形状 ? Box + pan
制造商 SPXS
平台类型 Starlink V2M
阶段状态 In Orbit
所有者/国家 SPXS/US

Most Searched